Location: Bennemühlen
(52.5740°N, 9.7135°E)
Time: 01:57:53
(UTC+00:00)

A-11 Canister half - Pass Details

Date: 22 February 2026
Orbit: 1513 x 1687 km, 47.2° (Epoch: 13 March)

Event Time Altitude Azimuth Distance (km) Brightness Sun altitude
Rises 23:03:11 0° 273° (W) 4,932 11.8 -46.9°
Reaches altitude 10° 23:06:26 10° 271° (W) 3,931 11.2 -47.0°
Enters shadow 23:07:19 13° 269° (W) 3,662 11.0 -47.0°
Maximum altitude 23:16:14 60° 195° (SSW) 1,837 - -47.2°
Drops below altitude 10° 23:25:42 10° 119° (ESE) 3,804 - -47.3°
Sets 23:28:47 0° 116° (ESE) 4,764 - -47.3°
